Tracking 18980 objects as of 19-Feb-2018
HD Live streaming from Space Station
objects crossing your sky now

FLOCK 3P 38

Track FLOCK 3P 38 now!
10-day predictions
FLOCK 3P 38 is classified as:


NORAD ID: 42037
Int'l Code: 2017-008CT
Perigee: 494.8 km
Apogee: 507.4 km
Inclination: 97.5 °
Period: 94.5 minutes
Semi major axis: 6872 km
RCS: Unknown
Launch date: February 15, 2017
Source: United States (US)
Launch site: SRIHARIKOTA (SRI)
aabbcc
Your satellite tracking list
Your tracking list is empty




NASA's NSSDC Master Catalog

Two Line Element Set (TLE):
1 42037U 17008CT  18049.79960840 +.00003828 +00000-0 +16113-3 0  9993
2 42037 097.4644 115.3806 0009190 076.5735 283.6526 15.23951246056021
Source of the keplerian elements: AFSPC